Change the Weather History Date:

Friday, August 2, 2013

  Actual Average Record
Temperature  
Mean Temperature 81 °F -  
Max Temperature 90 °F 87 °F 95 °F (1997)
Min Temperature 72 °F 74 °F 71 °F (2011)
Cooling Degree Days 16    
Growing Degree Days 31 (Base 50)    
Moisture  
Dew Point 70 °F    
Average Humidity 60    
Maximum Humidity 85    
Minimum Humidity 41    
Precipitation  
Precipitation 0.00 in - - ()
Sea Level Pressure  
Sea Level Pressure 29.85 in    
Wind  
Wind Speed 9 mph ()    
Max Wind Speed 18 mph    
Max Gust Speed -    
Visibility 7.9 miles    
Events      
Averages and records for this station are not official NWS values.
T = Trace of Precipitation, MM = Missing Value Source: Averaged Metar Reports

Daily Weather History Graph

Daily Weather History Graph

Search for Another Location

Airport or City:

Trip Planner

Search our weather history database for the weather conditions in past years. The results will help you decide how hot, cold, wet, or windy it might be!

Date:

Astronomy

Aug. 02, 2013 Rise Set
Actual Time 5:31 AM CST 6:05 PM CST
Civil Twilight 5:09 AM CST 6:27 PM CST
Nautical Twilight 4:43 AM CST 6:53 PM CST
Astronomical Twilight 4:16 AM CST 7:19 PM CST
Moon 1:59 AM CST (8/2) 2:54 PM CST (8/2)
Length of Visible Light 13h 18m
Length of Day
12h 34m
Waning Crescent, 15% of the Moon is Illuminated
Aug 2
Waning Crescent
Aug 6
New
Aug 14
First Quarter
Aug 20
Full
Aug 28
Last Quarter

Hourly Weather History & Observations

Time (CST) Temp. Heat Index Dew Point Humidity Pressure Visibility Wind Dir Wind Speed Gust Speed Precip Events Conditions
6:00 AM 74 °F - 70 °F 85% 29.87 in 12 mi North 4.6 mph - -   Scattered Clouds
6:00 AM 75.2 °F - 69.8 °F 83% 29.85 in 6.2 mi North 4.6 mph - N/A   Scattered Clouds
7:00 AM 80.6 °F 84.6 °F 71.6 °F 74% 29.87 in 6.2 mi Calm Calm - N/A   Scattered Clouds
8:00 AM 80.6 °F 85.4 °F 73.4 °F 79% 29.87 in - West 3.5 mph - N/A   Clear
9:00 AM 83 °F - 72 °F 61% 29.89 in 12 mi East 12.7 mph - -   Clear
9:00 AM 84.2 °F 89.6 °F 71.6 °F 66% 29.88 in - East 12.7 mph - N/A   Clear
10:00 AM 86.0 °F 90.4 °F 69.8 °F 58% 29.88 in - East 16.1 mph - N/A   Clear
11:00 AM 89.6 °F 94.7 °F 69.8 °F 52% 29.87 in 6.2 mi East 16.1 mph - N/A   Scattered Clouds
12:00 PM 87 °F - 69 °F 47% 29.87 in 12 mi East 17.3 mph - -   Partly Cloudy
12:00 PM 87.8 °F 92.6 °F 69.8 °F 55% 29.86 in 6.2 mi East 17.3 mph - N/A   Scattered Clouds
1:00 PM 86.0 °F 90.4 °F 69.8 °F 58% 29.84 in 6.2 mi East 16.1 mph - N/A   Scattered Clouds
2:00 PM 89.6 °F 93.4 °F 68.0 °F 49% 29.82 in 6.2 mi East 18.4 mph - N/A   Scattered Clouds
3:00 PM 90 °F - 69 °F 41% 29.82 in 12 mi East 16.1 mph - -   Scattered Clouds
3:00 PM 89.6 °F 94.7 °F 69.8 °F 52% 29.80 in 6.2 mi East 16.1 mph - N/A   Mostly Cloudy
4:00 PM 87.8 °F 91.4 °F 68.0 °F 52% 29.79 in 6.2 mi East 17.3 mph - N/A   Mostly Cloudy
5:00 PM 86.0 °F 89.4 °F 68.0 °F 55% 29.81 in 6.2 mi East 13.8 mph - N/A   Mostly Cloudy
6:00 PM 84 °F - 68 °F 50% 29.84 in 12 mi East 12.7 mph - -   Overcast
6:00 PM 84.2 °F 87.3 °F 68.0 °F 58% 29.82 in 6.2 mi East 12.7 mph - N/A   Mostly Cloudy
7:00 PM 82.4 °F 85.4 °F 68.0 °F 62% 29.86 in 6.2 mi East 16.1 mph - N/A   Scattered Clouds
8:00 PM 78.8 °F - 68.0 °F 69% 29.88 in 6.2 mi East 10.4 mph - N/A   Scattered Clouds